[[{"header":{"parameterUnit":"m.s-1","parameterCategory":1,"la1":30.2991,"la2":30.254,"lo1":-89.0895,"lo2":-89.0444,"dy":0.0017,"dx":0.0017,"nx":28,"ny":28,"refTime":"2023-04-23T21:00:00:Z","depth":0,"parameterNumber":2,"parameterNumberName":"U-component_of_WINDS"},"data":[0,0,0,0,0,0,0,0,0,0,0,0,0,0,0,0,0,0,0,0,0,0,0,0,0,0,0,0,0,0,0,0,0,0,0,0,0,0,0,0,0,0,0,0,0,0,0,0,0,0,0,0,0,0,0,0,0,0,-2.3148,-2.3148,0,-2.3148,-2.3148,-2.3148,-2.3063,-2.3061,-2.3059,-2.3056,-2.3059,-2.3061,-2.3063,0,0,0,0,0,0,0,0,0,0,0,0,0,-2.3078,-2.3079,-2.3148,-2.3148,-2.3148,-2.3148,-2.3148,-2.3148,-2.3063,-2.3061,-2.3058,-2.3055,-2.3058,-2.3061,-2.3063,0,0,0,0,0,0,0,0,0,0,0,0,0,-2.3096,-2.308,-2.3148,-2.3106,-2.3102,-2.3148,-2.3148,-2.3148,-2.3064,-2.3061,-2.3057,-2.3054,-2.3057,-2.306,-2.3064,-2.3151,0,0,-2.3074,-2.3075,0,0,0,0,0,0,0,0,-2.3095,-2.3099,-2.3112,-2.3109,-2.3105,-2.3102,-2.3124,-2.3149,-2.3065,-2.3079,-2.3056,-2.3052,-2.3076,-2.3078,-2.3085,-2.3151,-2.3151,-2.3074,-2.3076,-2.3077,-2.3078,0,0,0,0,0,0,0,-2.3094,-2.3098,-2.3148,-2.3113,-2.3108,-2.3088,-2.3086,-2.3128,-2.3096,-2.3077,-2.3071,-2.3072,-2.3073,-2.3082,-2.3084,-2.3151,-2.3074,-2.3077,-2.3079,-2.308,-2.3288,-2.3291,0,0,0,0,0,0,-2.3098,-2.3098,-2.3148,-2.3148,-2.3091,-2.3092,-2.309,-2.3106,-2.3096,-2.3091,-2.3075,-2.3068,-2.3078,-2.3081,-2.3084,-2.3186,-2.3077,-2.308,-2.3082,-2.3284,-2.3289,-2.3293,0,0,0,0,0,0,-2.3097,-2.3103,-2.3148,-2.3121,-2.3125,-2.3096,-2.3115,-2.3108,-2.3117,-2.3094,-2.3088,-2.3089,-2.3076,-2.308,-2.3135,-2.3185,-2.3082,-2.3085,-2.328,-2.3286,-2.3291,-2.339,0,0,0,0,0,0,-2.3095,-2.3103,-2.3136,-2.3123,-2.3127,-2.3199,-2.3118,-2.3111,-2.3122,-2.3113,-2.3106,-2.3102,-2.3073,-2.313,-2.3138,-2.3187,-2.3087,-2.3276,-2.3283,-2.3289,-2.3382,-2.3398,-2.3412,0,0,0,0,0,-2.3093,-2.3165,-2.3138,-2.3145,-2.3167,-2.3202,-2.3204,-2.317,-2.3126,-2.3159,-2.3144,-2.3102,-2.3177,-2.3137,-2.3144,-2.3196,-2.3272,-2.3281,-2.3289,-2.3375,-2.3395,-2.3411,0,0,0,0,0,0,-2.3186,-2.3162,-2.3133,-2.3202,-2.3204,-2.3187,-2.3228,-2.3191,-2.3207,-2.3198,-2.3155,-2.3154,-2.3216,-2.3211,-2.3166,-2.3279,-2.3217,-2.3227,-2.3281,-2.3299,-2.3314,-2.3314,-2.309,0,0,0,0,0,-2.3214,-2.3244,-2.3221,-2.3285,-2.3287,-2.3257,-2.3271,-2.3244,-2.3245,-2.3246,-2.3235,-2.3239,-2.3263,-2.328,-2.3302,-2.338,-2.3378,-2.3419,-2.3434,-2.3446,-2.3456,-2.3497,-2.3516,-2.3319,-2.3319,-2.3319,0,0,-2.3274,-2.3264,-2.3286,-2.3303,-2.3302,-2.3334,-2.3259,-2.3296,-2.332,-2.3252,-2.3303,-2.3295,-2.3296,-2.3363,-2.3392,-2.3361,-2.3509,-2.3456,-2.3466,-2.3469,-2.3508,-2.3526,-2.3543,-2.3325,-2.3324,-2.3323,0,0,-2.3399,-2.3394,-2.3446,-2.3446,-2.3445,-2.3424,-2.3437,-2.3425,-2.3417,-2.3467,-2.3417,-2.3444,-2.3487,-2.349,-2.3497,-2.3621,-2.3583,-2.3629,-2.3708,-2.3748,-2.3764,-2.3778,-2.3823,-2.384,-2.3639,-2.3639,-2.3639,0,-2.3474,-2.3519,-2.3478,-2.3519,-2.3528,-2.3466,-2.3519,-2.3521,-2.3527,-2.3536,-2.35,-2.3552,-2.3548,-2.3615,-2.3646,-2.3653,-2.3667,-2.3631,-2.3765,-2.3778,-2.379,-2.3833,-2.385,-2.3645,-2.3644,-2.3643,-2.3643,0,-2.3611,-2.3644,-2.3686,-2.3692,-2.3706,-2.3753,-2.3719,-2.3738,-2.3709,-2.3693,-2.3745,-2.3738,-2.3756,-2.377,-2.3743,-2.3833,-2.3814,-2.3772,-2.371,-2.3815,-2.3855,-2.3871,-2.3653,-2.3651,-2.3649,-2.3648,0,0,-2.3798,-2.3779,-2.3796,-2.3798,-2.379,-2.3815,-2.3858,-2.3875,-2.3893,-2.3899,-2.3935,-2.3972,-2.3933,-2.3941,-2.3913,-2.3949,-2.4049,-2.3902,-2.3901,-2.3931,-2.4149,-2.4182,-2.4202,-2.4022,-2.4025,-2.4027,-2.4149,0,-2.392,-2.3993,-2.3957,-2.4034,-2.4064,-2.4005,-2.4043,-2.4043,-2.4028,-2.4051,-2.4035,-2.4062,-2.4008,-2.4012,-2.4045,-2.403,-2.4092,-2.402,-2.4057,-2.4059,-2.406,-2.4222,-2.4257,-2.4373,-2.4165,-2.4167,-2.4169,0,-2.4073,-2.4084,-2.4164,-2.4151,-2.4162,-2.4197,-2.4209,-2.4232,-2.4231,-2.4217,-2.4226,-2.4189,-2.4231,-2.4167,-2.4226,-2.4177,-2.419,-2.4184,-2.4188,-2.4192,-2.4122,-2.4232,-2.4409,-2.4427,-2.4193,-2.4191,-2.4189,0,-2.4203,-2.4237,-2.429,-2.4293,-2.4278,-2.4304,-2.43,-2.4295,-2.4307,-2.4318,-2.4326,-2.4342,-2.4351,-2.4365,-2.4334,-2.429,-2.4397,-2.433,-2.4388,-2.4389,-2.4415,-2.4414,-2.4598,-2.442,-2.442,-2.442,-2.4419,0,-2.4344,-2.4396,-2.4348,-2.4381,-2.4437,-2.4394,-2.4451,-2.444,-2.4436,-2.4466,-2.4415,-2.4445,-2.4401,-2.4426,-2.4402,-2.4454,-2.4458,-2.445,-2.4443,-2.4455,-2.4457,-2.4465,-2.4456,-2.4424,-2.4423,-2.4422,-2.4421,0,-2.45,-2.4469,-2.4523,-2.4504,-2.45,-2.4543,-2.4527,-2.4557,-2.4537,-2.4576,-2.4582,-2.4552,-2.4579,-2.4548,-2.4573,-2.4557,-2.4628,-2.4608,-2.4629,-2.4624,-2.4684,-2.4679,-2.4881,-2.4906,-2.471,-2.4712,-2.4714,0,-2.4593,-2.4632,-2.4616,-2.4632,-2.463,-2.4656,-2.4668,-2.4627,-2.4642,-2.4642,-2.4672,-2.4694,-2.471,-2.4756,-2.4737,-2.4755,-2.4737,-2.4806,-2.474,-2.4751,-2.474,-2.4739,-2.4743,-2.4821,-2.4823,-2.4825,-2.4827,0,-2.4763,-2.4745,-2.4764,-2.4777,-2.4793,-2.4802,-2.4807,-2.4823,-2.478,-2.4799,-2.4825,-2.4837,-2.4861,-2.4884,-2.4897,-2.4893,-2.4854,-2.4847,-2.4862,-2.4876,-2.4887,-2.4883,-2.4668,-2.4843,-2.4842,-2.4841,-2.484,-2.4839,-2.4891,-2.4923,-2.4916,-2.4939,-2.4938,-2.4943,-2.497,-2.4953,-2.4974,-2.499,-2.4964,-2.4997,-2.4994,-2.5007,-2.5007,-2.5033,-2.5003,-2.5024,-2.503,-2.5036,-2.5046,-2.4881,-2.5035,-2.5034,-2.5034,-2.5033,-2.5033,0,-2.506,-2.5052,-2.5073,-2.5081,-2.5098,-2.5057,-2.506,-2.5078,-2.5108,-2.5107,-2.5123,-2.5153,-2.5175,-2.5157,-2.5175,-2.5199,-2.5181,-2.5205,-2.5204,-2.5204,-2.507,-2.5057,-2.5219,-2.5219,-2.5219,-2.5219,-2.5219,-2.5219,-2.5149,-2.52,-2.5182,-2.5232,-2.5224,-2.5255,-2.526,-2.5265,-2.5265,-2.53,-2.5317,-2.5305,-2.5298,-2.5314,-2.5333,-2.5327,-2.5336,-2.5367,-2.5355,-2.5232,-2.5213,-2.5196,-2.5183,-2.5369,-2.537,-2.5487,-2.5488,-2.5489]},{"header":{"parameterUnit":"m.s-1","parameterCategory":1,"la1":30.2991,"la2":30.254,"lo1":-89.0895,"lo2":-89.0444,"dy":0.0017,"dx":0.0017,"nx":28,"ny":28,"refTime":"2023-04-23T21:00:00:Z","depth":0,"parameterNumber":3,"parameterNumberName":"V-component_of_WINDS"},"data":[0,0,0,0,0,0,0,0,0,0,0,0,0,0,0,0,0,0,0,0,0,0,0,0,0,0,0,0,0,0,0,0,0,0,0,0,0,0,0,0,0,0,0,0,0,0,0,0,0,0,0,0,0,0,0,0,0,0,-6.3878,-6.3878,0,-6.394,-6.394,-6.3941,-6.3863,-6.3861,-6.3858,-6.3855,-6.3914,-6.3918,-6.3923,0,0,0,0,0,0,0,0,0,0,0,0,0,-6.3687,-6.3691,-6.3878,-6.3878,-6.3879,-6.394,-6.394,-6.3941,-6.3864,-6.386,-6.3857,-6.3854,-6.3913,-6.3918,-6.3923,0,0,0,0,0,0,0,0,0,0,0,0,0,-6.3761,-6.3692,-6.3877,-6.3848,-6.3846,-6.3939,-6.394,-6.3941,-6.3865,-6.386,-6.3856,-6.3852,-6.3911,-6.3917,-6.3924,-6.4048,0,0,-6.3943,-6.3946,0,0,0,0,0,0,0,0,-6.3757,-6.3768,-6.3852,-6.385,-6.3848,-6.389,-6.3895,-6.3977,-6.3866,-6.3857,-6.3855,-6.385,-6.3909,-6.3915,-6.3936,-6.405,-6.4053,-6.3943,-6.3947,-6.395,-6.3952,0,0,0,0,0,0,0,-6.3752,-6.3765,-6.3902,-6.3853,-6.3851,-6.383,-6.3836,-6.391,-6.3906,-6.3858,-6.3852,-6.3861,-6.3907,-6.393,-6.3937,-6.4054,-6.3943,-6.3949,-6.3953,-6.3955,-6.427,-6.4275,0,0,0,0,0,0,-6.3751,-6.3761,-6.39,-6.3904,-6.3791,-6.3837,-6.3843,-6.388,-6.3905,-6.3905,-6.3865,-6.3857,-6.3922,-6.393,-6.3939,-6.4084,-6.395,-6.3956,-6.396,-6.4266,-6.4271,-6.4276,0,0,0,0,0,0,-6.3747,-6.3764,-6.3897,-6.3831,-6.3847,-6.3845,-6.3887,-6.3884,-6.3907,-6.391,-6.3909,-6.3889,-6.3919,-6.393,-6.4021,-6.4085,-6.3959,-6.3964,-6.4261,-6.4268,-6.4274,-6.4378,0,0,0,0,0,0,-6.3742,-6.3763,-6.3812,-6.3833,-6.385,-6.3981,-6.3891,-6.3888,-6.3918,-6.3909,-6.3933,-6.3933,-6.3916,-6.4012,-6.4027,-6.4092,-6.3969,-6.4255,-6.4264,-6.4272,-6.4369,-6.4387,-6.4403,0,0,0,0,0,-6.3735,-6.3838,-6.3815,-6.3832,-6.3911,-6.3985,-6.3994,-6.3975,-6.3924,-6.3972,-6.3974,-6.3932,-6.4076,-6.4022,-6.4039,-6.4106,-6.4251,-6.4261,-6.4271,-6.4361,-6.4384,-6.4403,0,0,0,0,0,0,-6.3823,-6.384,-6.3815,-6.3927,-6.3955,-6.3971,-6.4031,-6.4,-6.4041,-6.4031,-6.4003,-6.4009,-6.4106,-6.4115,-6.4054,-6.4226,-6.4155,-6.4169,-6.4217,-6.4239,-6.4256,-6.4252,-6.3975,0,0,0,0,0,-6.3856,-6.3916,-6.3927,-6.4025,-6.404,-6.4034,-6.4065,-6.4047,-6.4074,-6.4085,-6.4094,-6.412,-6.4171,-6.4205,-6.4253,-6.4369,-6.4372,-6.4424,-6.4441,-6.4455,-6.4468,-6.4528,-6.4551,-6.431,-6.431,-6.431,0,0,-6.3924,-6.394,-6.398,-6.4043,-6.4063,-6.4123,-6.4044,-6.4112,-6.4156,-6.4095,-6.4182,-6.4189,-6.4216,-6.4321,-6.4367,-6.4331,-6.4535,-6.4468,-6.448,-6.4485,-6.4541,-6.4564,-6.4584,-6.4317,-6.4316,-6.4315,0,0,-6.4078,-6.4098,-6.4181,-6.4202,-6.4233,-6.4228,-6.4248,-6.4269,-6.4272,-6.4358,-6.4313,-6.4364,-6.4453,-6.4474,-6.4497,-6.4658,-6.462,-6.4674,-6.4765,-6.4824,-6.4843,-6.486,-6.4916,-6.4937,-6.4686,-6.4687,-6.4687,0,-6.4158,-6.425,-6.4228,-6.4299,-6.4327,-6.4275,-6.4358,-6.4379,-6.4424,-6.4444,-6.4403,-6.4513,-6.4528,-6.4635,-6.4675,-6.4695,-6.4715,-6.4671,-6.4843,-6.4859,-6.4874,-6.4928,-6.4949,-6.4693,-6.4692,-6.4691,-6.4691,0,-6.4346,-6.441,-6.4473,-6.4518,-6.4554,-6.463,-6.4618,-6.4656,-6.4635,-6.4633,-6.4721,-6.4737,-6.4786,-6.481,-6.479,-6.4914,-6.4891,-6.4847,-6.4775,-6.4904,-6.4953,-6.4974,-6.4702,-6.4699,-6.4698,-6.4696,0,0,-6.4558,-6.459,-6.4613,-6.4633,-6.4662,-6.471,-6.4783,-6.4832,-6.4865,-6.4897,-6.4956,-6.5032,-6.4991,-6.5017,-6.4998,-6.505,-6.5175,-6.5,-6.5,-6.5031,-6.5312,-6.5345,-6.5369,-6.5151,-6.5155,-6.5158,-6.531,0,-6.4712,-6.4841,-6.4823,-6.4946,-6.5003,-6.4954,-6.5018,-6.5042,-6.5042,-6.5089,-6.5088,-6.5142,-6.5085,-6.51,-6.5149,-6.515,-6.5231,-6.5139,-6.5204,-6.5207,-6.5199,-6.5395,-6.543,-6.5573,-6.5329,-6.5332,-6.5335,0,-6.491,-6.495,-6.5079,-6.5099,-6.5122,-6.518,-6.5222,-6.5269,-6.5294,-6.529,-6.5318,-6.5289,-6.536,-6.5287,-6.5383,-6.5321,-6.5346,-6.535,-6.5355,-6.536,-6.5279,-6.5405,-6.5618,-6.5639,-6.5365,-6.5363,-6.536,0,-6.5051,-6.5137,-6.5225,-6.5243,-6.5268,-6.531,-6.5322,-6.5343,-6.5373,-6.5409,-6.5428,-6.5472,-6.5496,-6.553,-6.5513,-6.5461,-6.5612,-6.5538,-6.5609,-6.561,-6.5643,-6.5642,-6.5863,-6.5661,-6.5661,-6.566,-6.566,0,-6.5225,-6.5306,-6.5289,-6.5343,-6.5431,-6.5408,-6.5495,-6.5501,-6.552,-6.5573,-6.5532,-6.5583,-6.5558,-6.5605,-6.5592,-6.5673,-6.5685,-6.5682,-6.5678,-6.5686,-6.5686,-6.5702,-6.5691,-6.5666,-6.5665,-6.5664,-6.5663,0,-6.5397,-6.539,-6.5482,-6.5498,-6.5504,-6.5568,-6.5581,-6.5631,-6.5627,-6.5694,-6.5709,-6.5703,-6.5757,-6.5743,-6.5802,-6.5793,-6.5895,-6.5878,-6.5887,-6.5883,-6.5955,-6.5948,-6.6195,-6.6225,-6.6004,-6.6006,-6.6008,0,-6.5509,-6.557,-6.5593,-6.5626,-6.5641,-6.5695,-6.5726,-6.5705,-6.5738,-6.577,-6.5816,-6.5866,-6.5906,-6.5994,-6.5994,-6.6038,-6.6021,-6.6104,-6.6027,-6.6033,-6.6021,-6.6018,-6.6023,-6.612,-6.6122,-6.6124,-6.6126,0,-6.5707,-6.57,-6.5747,-6.5792,-6.583,-6.5864,-6.5894,-6.5923,-6.5903,-6.5942,-6.5998,-6.6029,-6.6088,-6.6138,-6.6179,-6.6189,-6.6154,-6.615,-6.6169,-6.6178,-6.618,-6.6179,-6.5928,-6.6145,-6.6143,-6.6141,-6.614,-6.614,-6.5852,-6.5904,-6.5928,-6.598,-6.6001,-6.6029,-6.6077,-6.6079,-6.6125,-6.6173,-6.6157,-6.622,-6.6241,-6.6292,-6.6307,-6.6355,-6.6323,-6.635,-6.6357,-6.6364,-6.6373,-6.6173,-6.6362,-6.6361,-6.6361,-6.636,-6.636,0,-6.6048,-6.606,-6.6109,-6.6153,-6.6194,-6.6159,-6.6189,-6.6226,-6.6282,-6.6306,-6.6345,-6.6408,-6.6456,-6.6459,-6.6504,-6.6541,-6.6526,-6.6553,-6.655,-6.6553,-6.6399,-6.6378,-6.6565,-6.6565,-6.6565,-6.6565,-6.6565,-6.6565,-6.6154,-6.6239,-6.6235,-6.6328,-6.634,-6.6402,-6.6423,-6.6448,-6.6467,-6.6539,-6.6579,-6.6581,-6.6596,-6.6641,-6.6683,-6.6683,-6.6701,-6.6734,-6.6727,-6.6584,-6.6564,-6.6544,-6.6524,-6.6738,-6.6739,-6.6877,-6.6878,-6.6879]}]]